Home   Weather   Teseney   Past weeks

Flag for Eritrea Past Weather in Teseney, Eritrea — Yesterday and Last 2 Weeks

82 °F


Feels Like: 80 °F
Forecast: 76 / 102 °F
Wind: 9 mph from Northwest

Location: Khartoum Airport

Current Time: Oct 26, 2016 at 7:01:03 AM

Latest Report: Oct 26, 2016 at 6:30 AM

Visibility: 10 mi

Pressure: 29.74 "Hg (27.80 "Hg at 593m altitude)

Humidity: 16%

Dew Point: 32 °F

Location of TeseneyLocation

Past Weather in Teseney — Graph


Teseney Temperature Yesterday

Maximum temperature yesterday: 102 °F (at 3:00 PM)
Minimum temperature yesterday: 82 °F (at 7:00 AM)
Average temperature yesterday: 93 °F

High & Low Weather Summary for the Past Weeks

High104 °F (Oct 11, 3:00 PM)58% (Oct 11, 6:30 AM)29.95 "Hg (Oct 11, 6:30 AM)
Low81 °F (Oct 11, 6:30 AM)8% (Oct 14, 3:00 PM)29.68 "Hg (Oct 20, 3:30 PM)
Average93 °F21%29.81 "Hg
* Reported Oct 11 5:00 AM — Oct 26 5:30 AM, Teseney, Weather by CustomWeather, © 2016

Note: Actual official high and low records may vary slightly from our data, if they occured in-between our weather recording intervals... More about our weather records


Teseney Weather History for the Previous 24 Hours

Scroll right to see more
Time TempWeatherWind HumidityBarometerVisibility
5:30 AM
Wed, Oct 26
82 °FClear.9 mph19%29.71 "Hg10 mi
5:00 AM82 °FClear.5 mph19%29.71 "Hg10 mi
4:30 AM81 °FClear.5 mph21%29.71 "Hg10 mi
4:00 AM81 °FClear.7 mph21%29.71 "Hg10 mi
3:30 AM86 °FClear.7 mph18%29.71 "Hg10 mi
3:00 AM86 °FClear.8 mph18%29.74 "Hg10 mi
2:30 AM86 °FClear.7 mph19%29.77 "Hg10 mi
2:00 AM88 °FClear.5 mph19%29.77 "Hg10 mi
1:30 AM88 °FClear.10 mph18%29.77 "Hg10 mi
1:00 AM90 °FClear.3 mph16%29.77 "Hg10 mi
12:30 AM90 °FClear.10 mph16%29.77 "Hg10 mi
12:00 AM90 °FClear.12 mph17%29.77 "Hg10 mi
11:30 PM
Tue, Oct 25
91 °FClear.14 mph14%29.77 "Hg10 mi
11:00 PM91 °FClear.15 mph14%29.77 "Hg10 mi
10:30 PM93 °FClear.14 mph16%29.77 "Hg10 mi
10:00 PM93 °FClear.13 mph16%29.77 "Hg10 mi
9:30 PM95 °FClear.12 mph13%29.77 "Hg10 mi
9:00 PM97 °FClear.13 mph16%29.74 "Hg10 mi
8:30 PM97 °FClear.6 mph16%29.71 "Hg10 mi
8:00 PM97 °FClear.6 mph16%29.71 "Hg10 mi
7:30 PM99 °FClear.6 mph13%29.68 "Hg10 mi
7:00 PM99 °FClear.N/A13%29.68 "Hg10 mi
6:30 PM99 °FClear.9 mph14%29.68 "Hg10 mi
6:00 PM100 °FPassing clouds.7 mph15%29.68 "HgN/A
5:30 PM100 °FScattered clouds.6 mph14%29.68 "HgN/A
5:00 PM100 °FScattered clouds.9 mph14%29.68 "HgN/A
4:30 PM100 °FScattered clouds.6 mph15%29.68 "HgN/A
4:00 PM102 °FSunny.8 mph13%29.68 "Hg10 mi
3:30 PM100 °FSunny.5 mph14%29.71 "Hg10 mi
3:00 PM102 °FPassing clouds.5 mph16%29.71 "HgN/A
2:30 PM100 °FSunny.5 mph15%29.74 "Hg10 mi
2:00 PM100 °FSunny.3 mph15%29.77 "Hg10 mi
1:30 PM99 °FSunny.7 mph17%29.77 "Hg10 mi
1:00 PM99 °FSunny.10 mph17%29.80 "Hg10 mi
12:30 PM97 °FSunny.7 mph18%29.80 "Hg10 mi
12:00 PM95 °FSunny.10 mph22%29.83 "Hg10 mi
11:30 AM95 °FSunny.12 mph20%29.83 "Hg10 mi
11:00 AM91 °FSunny.12 mph21%29.83 "Hg10 mi
10:30 AM90 °FSunny.12 mph21%29.86 "Hg10 mi
10:00 AM90 °FSunny.8 mph21%29.83 "Hg10 mi
9:30 AM86 °FSunny.8 mph18%29.83 "Hg10 mi
9:00 AM86 °FSunny.12 mph18%29.83 "Hg10 mi
8:30 AM84 °FSunny.12 mph20%29.83 "Hg10 mi
8:00 AM84 °FSunny.12 mph20%29.80 "Hg10 mi
7:30 AM82 °FSunny.10 mph21%29.80 "Hg10 mi
7:00 AM82 °FSunny.9 mph21%29.80 "Hg10 mi
Weather by CustomWeather, © 2016

See weather overviewHow to use our weather pages